TimeCST,TemperatureF,Dew PointF,Humidity,Sea Level PressureIn,VisibilityMPH,Wind Direction,Wind SpeedMPH,Gust SpeedMPH,PrecipitationIn,Events,Conditions,WindDirDegrees,DateUTC
12:15 AM,30.2,14.0,51,30.19,10.0,SE,5.8,-,N/A,,Clear,130,2012-12-12 06:15:00
12:35 AM,30.2,14.0,51,30.19,10.0,SE,5.8,-,N/A,,Clear,140,2012-12-12 06:35:00
12:55 AM,30.2,14.0,51,30.18,10.0,SE,6.9,-,N/A,,Clear,140,2012-12-12 06:55:00
1:15 AM,30.2,14.0,51,30.18,10.0,SE,6.9,-,N/A,,Clear,140,2012-12-12 07:15:00
1:35 AM,30.2,14.0,51,30.18,10.0,SE,6.9,-,N/A,,Clear,130,2012-12-12 07:35:00
1:55 AM,28.4,14.0,55,30.18,10.0,SE,4.6,-,N/A,,Clear,130,2012-12-12 07:55:00
2:15 AM,28.4,14.0,55,30.19,10.0,SE,5.8,-,N/A,,Clear,140,2012-12-12 08:15:00
2:35 AM,28.4,14.0,55,30.19,10.0,SE,5.8,-,N/A,,Clear,130,2012-12-12 08:35:00
2:55 AM,26.6,14.0,59,30.19,10.0,ESE,5.8,-,N/A,,Clear,120,2012-12-12 08:55:00
3:15 AM,26.6,12.2,55,30.18,10.0,ESE,5.8,-,N/A,,Clear,120,2012-12-12 09:15:00
3:35 AM,26.6,14.0,59,30.18,10.0,ESE,6.9,-,N/A,,Clear,110,2012-12-12 09:35:00
3:55 AM,24.8,14.0,64,30.18,10.0,ESE,5.8,-,N/A,,Clear,120,2012-12-12 09:55:00
4:15 AM,26.6,14.0,59,30.18,10.0,ESE,8.1,-,N/A,,Clear,120,2012-12-12 10:15:00
4:35 AM,26.6,14.0,59,30.18,10.0,ESE,6.9,-,N/A,,Clear,120,2012-12-12 10:35:00
4:55 AM,26.6,14.0,59,30.17,10.0,ESE,6.9,-,N/A,,Clear,120,2012-12-12 10:55:00
5:15 AM,26.6,14.0,59,30.18,10.0,ESE,5.8,-,N/A,,Clear,120,2012-12-12 11:15:00
5:35 AM,26.6,12.2,55,30.18,10.0,ESE,8.1,-,N/A,,Clear,120,2012-12-12 11:35:00
6:15 AM,26.6,12.2,55,30.18,10.0,ESE,9.2,-,N/A,,Clear,120,2012-12-12 12:15:00
6:35 AM,23.0,12.2,63,30.18,10.0,ESE,6.9,-,N/A,,Clear,120,2012-12-12 12:35:00
6:55 AM,24.8,12.2,59,30.19,10.0,ESE,6.9,-,N/A,,Clear,120,2012-12-12 12:55:00
7:15 AM,23.0,12.2,63,30.20,10.0,ESE,5.8,-,N/A,,Clear,120,2012-12-12 13:15:00
7:35 AM,24.8,14.0,64,30.21,10.0,SE,8.1,-,N/A,,Clear,130,2012-12-12 13:35:00
7:55 AM,26.6,14.0,59,30.21,10.0,ESE,8.1,-,N/A,,Clear,120,2012-12-12 13:55:00
8:15 AM,26.6,14.0,59,30.21,10.0,ESE,5.8,-,N/A,,Clear,120,2012-12-12 14:15:00
8:35 AM,28.4,14.0,55,30.21,10.0,SE,6.9,-,N/A,,Clear,130,2012-12-12 14:35:00
8:55 AM,30.2,15.8,55,30.21,10.0,SE,9.2,-,N/A,,Clear,140,2012-12-12 14:55:00
9:15 AM,32.0,15.8,51,30.21,10.0,SE,9.2,-,N/A,,Clear,140,2012-12-12 15:15:00
9:35 AM,35.6,14.0,41,30.21,10.0,SSE,10.4,-,N/A,,Clear,160,2012-12-12 15:35:00
9:55 AM,35.6,14.0,41,30.21,10.0,SSE,11.5,-,N/A,,Clear,160,2012-12-12 15:55:00
10:15 AM,39.2,14.0,36,30.21,10.0,SSE,11.5,-,N/A,,Clear,160,2012-12-12 16:15:00
10:55 AM,44.6,15.8,31,30.20,10.0,South,16.1,-,N/A,,Clear,170,2012-12-12 16:55:00
11:15 AM,44.6,15.8,31,30.19,10.0,SSE,13.8,-,N/A,,Clear,160,2012-12-12 17:15:00
11:35 AM,46.4,17.6,32,30.19,10.0,South,13.8,19.6,N/A,,Clear,170,2012-12-12 17:35:00
11:55 AM,50.0,17.6,28,30.18,10.0,South,15.0,19.6,N/A,,Clear,170,2012-12-12 17:55:00
12:15 PM,51.8,17.6,26,30.17,10.0,South,18.4,21.9,N/A,,Clear,170,2012-12-12 18:15:00
12:55 PM,53.6,17.6,24,30.14,10.0,South,18.4,23.0,N/A,,Clear,180,2012-12-12 18:55:00
1:15 PM,53.6,17.6,24,30.12,10.0,SSE,18.4,24.2,N/A,,Clear,160,2012-12-12 19:15:00
1:55 PM,55.4,17.6,23,30.09,10.0,South,18.4,-,N/A,,Clear,170,2012-12-12 19:55:00
2:15 PM,57.2,17.6,21,30.08,10.0,South,23.0,-,N/A,,Clear,170,2012-12-12 20:15:00
2:35 PM,59.0,17.6,20,30.07,10.0,South,18.4,28.8,N/A,,Clear,180,2012-12-12 20:35:00
2:55 PM,59.0,17.6,20,30.07,10.0,South,18.4,24.2,N/A,,Clear,170,2012-12-12 20:55:00
3:15 PM,59.0,17.6,20,30.07,10.0,South,20.7,28.8,N/A,,Clear,170,2012-12-12 21:15:00
3:35 PM,59.0,17.6,20,30.07,10.0,SSE,18.4,-,N/A,,Clear,160,2012-12-12 21:35:00
3:55 PM,59.0,17.6,20,30.06,10.0,SSE,16.1,-,N/A,,Clear,160,2012-12-12 21:55:00
4:15 PM,59.0,17.6,20,30.06,10.0,SSE,20.7,-,N/A,,Clear,160,2012-12-12 22:15:00
4:35 PM,59.0,17.6,20,30.07,10.0,SSE,16.1,-,N/A,,Clear,160,2012-12-12 22:35:00
4:55 PM,57.2,17.6,21,30.06,10.0,SSE,12.7,-,N/A,,Clear,150,2012-12-12 22:55:00
5:15 PM,55.4,19.4,25,30.06,10.0,SE,12.7,-,N/A,,Clear,140,2012-12-12 23:15:00
5:35 PM,53.6,19.4,26,30.06,10.0,SE,12.7,-,N/A,,Clear,140,2012-12-12 23:35:00
5:55 PM,51.8,19.4,28,30.06,10.0,SE,12.7,-,N/A,,Clear,140,2012-12-12 23:55:00
6:55 PM,48.2,19.4,32,30.08,10.0,SE,12.7,-,N/A,,Clear,140,2012-12-13 00:55:00
7:15 PM,48.2,19.4,32,30.09,10.0,SE,16.1,-,N/A,,Clear,140,2012-12-13 01:15:00
7:55 PM,46.4,19.4,34,30.09,10.0,SE,13.8,-,N/A,,Clear,140,2012-12-13 01:55:00
8:15 PM,46.4,19.4,34,30.10,10.0,SE,12.7,-,N/A,,Clear,130,2012-12-13 02:15:00
8:35 PM,44.6,19.4,37,30.10,10.0,SE,12.7,-,N/A,,Clear,130,2012-12-13 02:35:00
8:55 PM,42.8,19.4,39,30.11,10.0,ESE,10.4,-,N/A,,Clear,120,2012-12-13 02:55:00
9:15 PM,42.8,19.4,39,30.11,10.0,SE,9.2,-,N/A,,Clear,130,2012-12-13 03:15:00
9:35 PM,41.0,19.4,42,30.11,10.0,SE,10.4,-,N/A,,Clear,130,2012-12-13 03:35:00
9:55 PM,41.0,19.4,42,30.12,10.0,SE,10.4,-,N/A,,Clear,130,2012-12-13 03:55:00
10:15 PM,41.0,19.4,42,30.12,10.0,SE,13.8,-,N/A,,Clear,130,2012-12-13 04:15:00
10:35 PM,41.0,19.4,42,30.12,10.0,SE,12.7,-,N/A,,Clear,130,2012-12-13 04:35:00
10:55 PM,41.0,19.4,42,30.13,10.0,SE,11.5,-,N/A,,Clear,130,2012-12-13 04:55:00
11:15 PM,39.2,19.4,45,30.13,10.0,SE,12.7,-,N/A,,Clear,130,2012-12-13 05:15:00
11:35 PM,39.2,19.4,45,30.14,10.0,SE,10.4,-,N/A,,Clear,130,2012-12-13 05:35:00
11:55 PM,37.4,19.4,48,30.14,10.0,SE,10.4,-,N/A,,Clear,130,2012-12-13 05:55:00